Home   Weather   Auckland   Past weeks
Flag for New Zealand

Past Weather in Auckland, New Zealand — Yesterday and Last 2 Weeks

Now
61 °F

Partly sunny.


Feels Like: 61 °F
Forecast: 64 / 52 °F
Wind: 5 mph from Southwest

Location: Auckland Airport

Current Time: May 23, 2019 at 1:38:41 pm

Latest Report: May 23, 2019 at 1:00 pm


Visibility: N/A

Pressure: 30.27 "Hg

Humidity: 77%

Dew Point: 54 °F

Location of AucklandLocation

Past Weather in Auckland — Graph

°F

Auckland Temperature Yesterday

Maximum temperature yesterday: 63 °F (at 12:00 pm)
Minimum temperature yesterday: 54 °F (at 9:00 pm)
Average temperature yesterday: 58 °F

High & Low Weather Summary for the Past Weeks

 TemperatureHumidityPressure
High70 °F (May 9, 1:30 pm)100% (May 9, 6:00 am)30.30 "Hg (May 9, 6:00 am)
Low48 °F (May 18, 1:00 am)56% (May 13, 12:00 pm)29.65 "Hg (May 12, 10:30 pm)
Average60 °F82%30.13 "Hg
* Reported May 8 12:00 pm — May 23 12:30 pm, Auckland. Weather by CustomWeather, © 2019

Note: Actual official high and low records may vary slightly from our data, if they occured in-between our weather recording intervals... More about our weather records

Advertising

Auckland Weather History for the Previous 24 Hours

Scroll right to see more
 ConditionsComfort  
Time TempWeatherWind HumidityBarometerVisibility
12:30 pm
Thu, May 23
61 °FPartly sunny.3 mph83%30.27 "HgN/A
12:00 pm61 °FPartly sunny.3 mph77%30.27 "HgN/A
11:30 am61 °FOvercast.3 mph77%30.30 "HgN/A
11:00 am59 °FPartly sunny.1 mph88%30.30 "HgN/A
10:30 am59 °FPartly sunny.3 mph88%30.30 "HgN/A
10:00 am59 °FPassing clouds.5 mph88%30.27 "HgN/A
9:30 am59 °FPartly sunny.5 mph88%30.27 "HgN/A
9:00 am57 °FLight rain. Partly sunny.3 mph94%30.27 "HgN/A
8:30 am54 °FCool.1 mph100%30.27 "HgN/A
8:00 am54 °FCool.2 mph100%30.27 "HgN/A
7:30 am54 °FFog.No wind100%30.27 "Hg3 mi
7:00 am52 °FMostly cloudy.1 mph100%30.27 "HgN/A
6:30 am52 °FFog.1 mph100%30.27 "Hg3 mi
6:00 am54 °FPassing clouds.2 mph100%30.24 "HgN/A
5:30 am54 °FPassing clouds.No wind100%30.24 "Hg6 mi
5:00 am54 °FMostly cloudy.1 mph100%30.24 "HgN/A
4:30 am55 °FPassing clouds.1 mph100%30.24 "HgN/A
4:00 am55 °FLight rain. Fog.2 mph94%30.24 "Hg3 mi
3:30 am55 °FLight rain. Passing clouds.No wind100%30.24 "Hg4 mi
3:00 am55 °FLight rain. Passing clouds.1 mph94%30.24 "HgN/A
2:30 am54 °FPassing clouds.3 mph100%30.24 "HgN/A
2:00 am55 °FPartly cloudy.No wind94%30.24 "HgN/A
1:30 am55 °FPassing clouds.2 mph94%30.24 "HgN/A
1:00 am54 °FPartly cloudy.1 mph100%30.27 "HgN/A
12:30 am55 °FCool.6 mph94%30.27 "HgN/A
12:00 am54 °FPassing clouds.6 mph100%30.27 "HgN/A
11:30 pm
Wed, May 22
55 °FPassing clouds.8 mph94%30.27 "HgN/A
11:00 pm54 °FCool.6 mph94%30.27 "HgN/A
10:30 pm54 °FPassing clouds.6 mph100%30.27 "HgN/A
10:00 pm54 °FCool.5 mph94%30.27 "HgN/A
9:30 pm54 °FCool.3 mph94%30.27 "HgN/A
9:00 pm54 °FPassing clouds.5 mph88%30.27 "HgN/A
8:30 pm55 °FPassing clouds.5 mph88%30.27 "HgN/A
8:00 pm55 °FPassing clouds.5 mph94%30.27 "HgN/A
7:30 pm55 °FPassing clouds.5 mph94%30.27 "HgN/A
7:00 pm55 °FPassing clouds.6 mph94%30.27 "HgN/A
6:30 pm55 °FPassing clouds.6 mph94%30.27 "HgN/A
6:00 pm55 °FPassing clouds.5 mph94%30.27 "HgN/A
5:30 pm57 °FMostly cloudy.8 mph94%30.27 "HgN/A
5:00 pm59 °FScattered showers. Partly sunny.7 mph88%30.24 "HgN/A
4:30 pm61 °FScattered clouds.6 mph83%30.24 "HgN/A
4:00 pm59 °FScattered clouds.6 mph88%30.27 "HgN/A
3:30 pm59 °FPartly sunny.15 mph88%30.27 "HgN/A
3:00 pm61 °FScattered showers. Cloudy.6 mph77%30.27 "HgN/A
2:30 pm61 °FScattered clouds.8 mph83%30.27 "HgN/A
2:00 pm61 °FPartly sunny.12 mph83%30.27 "HgN/A
1:30 pm63 °FPassing clouds.10 mph73%30.27 "HgN/A
1:00 pm63 °FPartly sunny.9 mph73%30.27 "HgN/A
Weather by CustomWeather, © 2019

See weather overview